GW1686 Weather Reports


Display with metric or nautical units.
time (UTC)temp
F
wind
direction
speed
MPH
gust
MPH
rain 1hr
in
rain 24hr
in
rain mn
in
humidity
%
barometer
mb
20260508084540 76 0 0.0 3.0 0.00 0.00 0.00 90 1009.5
20260508083040 76 0 0.0 3.0 0.00 0.00 0.00 90 1009.5
20260508081537 76 0 0.0 3.0 0.00 0.00 0.00 89 1009.4
20260508080042 76 0 0.0 1.0 0.00 0.00 0.00 89 1009.4
20260508074544 76 0 0.0 2.0 0.00 0.00 0.00 89 1009.5
20260508073039 76 0 0.0 5.0 0.00 0.00 0.00 89 1009.6
20260508071540 76 360 0.0 4.0 0.00 0.00 0.00 88 1009.7
20260508070038 76 0 0.0 5.0 0.00 0.00 0.00 88 1010.1
20260508064546 76 360 2.0 4.0 0.00 0.00 0.00 88 1010.1
20260508063114 76 360 1.0 3.0 0.00 0.00 0.00 87 1010.3
20260508061541 76 0 0.0 4.0 0.00 0.00 0.00 87 1010.5
20260508060041 76 0 0.0 4.0 0.00 0.00 0.00 87 1010.6
20260508054543 76 360 1.0 3.0 0.00 0.00 0.00 87 1010.8
20260508053050 76 0 0.0 2.0 0.00 0.00 0.00 86 1010.8
20260508051606 76 0 0.0 4.0 0.00 0.00 0.00 87 1010.8
20260508050042 76 360 0.0 4.0 0.00 0.00 0.00 87 1010.9
20260508044540 76 0 0.0 3.0 0.00 0.00 0.00 87 1010.8
20260508043040 76 0 0.0 3.0 0.00 0.00 0.00 87 1010.9
20260508041546 76 0 0.0 2.0 0.00 0.00 0.00 87 1011.0
20260508040045 76 0 0.0 3.0 0.00 0.00 0.00 87 1011.1
20260508034539 76 0 0.0 4.0 0.00 0.00 0.00 87 1011.2
20260508033046 76 0 0.0 4.0 0.00 0.00 0.00 87 1011.1
20260508031539 76 0 0.0 3.0 0.00 0.00 0.00 87 1011.2
20260508030044 76 360 0.0 3.0 0.00 0.00 0.00 86 1011.1
20260508024543 76 0 0.0 3.0 0.00 0.00 0.00 86 1011.0
20260508023042 76 0 0.0 2.0 0.00 0.00 0.00 86 1011.0
20260508021545 77 0 0.0 4.0 0.00 0.00 0.00 86 1010.9
20260508020040 77 0 0.0 3.0 0.00 0.00 0.00 86 1010.8
20260508014539 77 0 0.0 2.0 0.00 0.00 0.00 86 1010.9
20260508013043 77 0 0.0 3.0 0.00 0.00 0.00 85 1010.8
20260508011546 77 360 0.0 2.0 0.00 0.00 0.00 86 1010.9
20260508010055 77 0 0.0 3.0 0.00 0.00 0.00 85 1010.8
20260508004542 77 0 0.0 3.0 0.00 0.00 0.00 84 1010.7
20260508003040 77 360 0.0 3.0 0.00 0.00 0.00 84 1010.7
20260508001541 78 360 0.0 5.0 0.00 0.00 0.00 83 1010.6
20260508000045 78 360 0.0 5.0 0.00 0.00 0.00 82 1010.5
20260507234537 79 360 1.0 5.0 0.00 0.00 0.00 80 1010.7
20260507233046 79 19 1.0 7.0 0.00 0.00 0.00 79 1010.6
20260507231541 80 204 1.0 7.0 0.00 0.00 0.00 78 1010.6
20260507230054 80 281 1.0 7.0 0.00 0.00 0.00 79 1010.4
20260507224537 80 244 2.0 9.0 0.00 0.00 0.00 76 1010.5
20260507223121 81 234 2.0 8.0 0.00 0.00 0.00 75 1010.3
20260507221540 82 283 2.0 6.0 0.00 0.00 0.00 72 1010.1
20260507220040 82 307 2.0 7.0 0.00 0.00 0.00 74 1010.3
20260507214544 82 249 2.0 6.0 0.00 0.00 0.00 75 1010.3
20260507213045 83 211 2.0 6.0 0.00 0.00 0.00 74 1010.3
20260507211542 83 273 2.0 8.0 0.00 0.00 0.00 72 1010.5
20260507210046 84 279 2.0 8.0 0.00 0.00 0.00 71 1010.7
20260507204544 83 278 3.0 8.0 0.00 0.00 0.00 70 1010.7
20260507203043 83 330 3.0 8.0 0.00 0.00 0.00 73 1010.7
20260507201554 83 256 2.0 9.0 0.00 0.00 0.00 73 1010.8
20260507200054 83 246 3.0 8.0 0.00 0.00 0.00 74 1010.8
20260507194540 82 245 3.0 10.0 0.00 0.00 0.00 78 1011.0
20260507193045 83 229 3.0 9.0 0.00 0.00 0.00 74 1011.4
20260507191544 83 250 3.0 11.0 0.00 0.00 0.00 76 1011.6
20260507190049 83 238 3.0 8.0 0.00 0.00 0.00 77 1011.7
20260507184539 82 249 5.0 10.0 0.00 0.00 0.00 77 1011.9
20260507183040 82 269 4.0 10.0 0.00 0.00 0.00 77 1012.2
20260507181538 82 217 4.0 12.0 0.00 0.00 0.00 77 1012.3
20260507180036 82 205 3.0 10.0 0.00 0.00 0.00 77 1012.2
20260507174553 82 268 4.0 12.0 0.00 0.00 0.00 78 1012.2
20260507173044 82 205 4.0 9.0 0.00 0.00 0.00 75 1012.4
20260507171552 82 225 4.0 11.0 0.00 0.00 0.00 77 1012.6
20260507170045 82 234 4.0 11.0 0.00 0.00 0.00 76 1012.7
20260507164546 81 0 5.0 11.0 0.00 0.00 0.00 76 1012.6
20260507163037 81 198 4.0 9.0 0.00 0.00 0.00 78 1012.9
20260507161551 81 232 5.0 10.0 0.00 0.00 0.00 77 1013.1
20260507160044 81 244 3.0 11.0 0.00 0.00 0.00 78 1013.1
20260507154543 82 253 3.0 8.0 0.00 0.00 0.00 78 1013.1
20260507153042 81 250 3.0 11.0 0.00 0.00 0.00 79 1013.2
20260507151537 81 231 2.0 10.0 0.00 0.00 0.00 80 1013.3
20260507150051 81 209 4.0 13.0 0.00 0.00 0.00 79 1013.1
20260507144541 80 189 5.0 12.0 0.00 0.00 0.00 78 1013.0
20260507143038 80 237 5.0 12.0 0.00 0.00 0.00 76 1012.8
20260507141537 80 279 3.0 8.0 0.00 0.00 0.00 78 1012.8
20260507140038 79 227 3.0 10.0 0.00 0.00 0.00 77 1012.7
20260507134542 79 232 3.0 9.0 0.00 0.00 0.00 83 1012.6
20260507133042 78 195 4.0 9.0 0.00 0.00 0.00 84 1012.5
20260507131541 77 17 2.0 9.0 0.00 0.00 0.00 87 1012.2
20260507130055 76 360 4.0 9.0 0.00 0.00 0.00 87 1012.2
20260507124536 76 360 3.0 9.0 0.00 0.00 0.00 89 1012.1
20260507123057 75 360 3.0 6.0 0.00 0.00 0.00 92 1012.0
20260507121550 74 0 1.0 6.0 0.00 0.00 0.00 94 1011.9
20260507120041 73 360 1.0 3.0 0.00 0.00 0.00 95 1011.8
20260507114539 73 360 0.0 3.0 0.00 0.00 0.00 96 1011.7
20260507113037 72 0 0.0 0.0 0.00 0.00 0.00 96 1011.4
20260507111542 71 0 0.0 0.0 0.00 0.00 0.00 96 1011.4
20260507110043 70 0 0.0 0.0 0.00 0.00 0.00 95 1011.4
20260507104540 70 0 0.0 0.0 0.00 0.00 0.00 95 1011.5
20260507103039 70 0 0.0 0.0 0.00 0.00 0.00 95 1011.3
20260507101542 70 0 0.0 0.0 0.00 0.00 0.00 95 1011.2
20260507100053 70 0 0.0 0.0 0.00 0.00 0.00 95 1011.3
20260507094541 70 0 0.0 0.0 0.00 0.00 0.00 95 1011.0
20260507093039 71 0 0.0 0.0 0.00 0.00 0.00 95 1010.9
20260507091537 71 0 0.0 0.0 0.00 0.00 0.00 95 1010.9
20260507090036 71 0 0.0 0.0 0.00 0.00 0.00 95 1011.0